Wind_Speed
28 27 27 28 28 27 26 24 24 23 22 21 20 18 17 15 13 11 10 9 8 7 6 5 5 4 4 4 3 3 3 3 3 2 2 2 1 1 1 0 1 1 2
33 32 30 28 30 29 28 27 26 26 25 24 24 23 21 19 17 15 14 12 11 10 9 8 7 6 6 5 4 4 3 3 2 2 1 1 0 0 1 1 1 2 3
39 37 35 33 32 31 30 29 28 26 25 26 27 26 25 24 22 20 18 16 15 13 12 11 10 9 8 7 6 5 5 4 3 3 2 2 2 2 2 2 3 3 4
43 42 40 39 37 34 33 31 30 29 27 27 28 29 28 27 26 24 22 21 19 17 15 14 13 12 11 10 9 8 7 7 6 5 5 4 4 4 4 4 4 5 5
42 43 43 43 42 40 37 35 33 31 29 29 29 30 31 31 30 28 26 24 22 20 19 17 16 15 14 13 12 11 10 9 9 8 7 7 7 6 6 6 6 6 7
41 42 42 44 43 42 41 39 37 35 33 31 31 31 32 33 33 32 31 28 26 24 22 21 19 18 17 16 14 13 12 11 11 11 10 10 9 9 9 8 8 9 9
39 40 41 42 43 43 42 41 40 39 37 35 33 32 33 34 34 34 33 32 30 27 25 24 23 22 21 20 18 16 15 14 14 13 13 12 12 11 11 11 11 11 11
37 38 40 41 42 42 42 42 42 41 39 38 35 33 32 34 35 35 35 34 33 31 29 27 26 24 24 23 21 20 19 18 17 16 15 15 14 14 14 14 14 13 13
34 37 39 41 42 42 42 42 43 42 40 39 37 35 33 31 34 35 35 36 35 34 32 30 29 27 26 26 25 24 22 21 19 18 18 17 17 16 16 16 16 16 16
30 33 36 39 42 43 43 42 42 43 42 41 39 37 35 33 33 34 35 36 36 35 34 32 31 29 29 28 27 26 25 24 22 21 20 19 18 18 17 17 17 17 17
26 28 32 35 39 41 43 44 43 43 43 43 41 40 39 37 35 34 34 36 37 37 36 34 33 32 31 30 28 28 27 26 24 23 22 21 20 19 18 18 18 18 18
21 24 28 31 35 38 41 42 44 43 43 44 43 42 41 40 39 36 34 34 35 37 37 36 35 34 32 31 30 29 28 27 26 25 23 22 21 20 19 19 18 18 19
18 20 22 26 30 34 37 41 42 43 43 44 44 44 43 41 40 40 38 36 35 36 37 37 37 36 34 32 31 30 29 28 27 26 25 23 22 21 20 20 19 19 20
14 16 17 20 24 28 32 37 40 42 43 44 45 45 45 44 42 42 41 38 36 36 37 38 38 37 36 34 32 31 30 29 28 27 26 25 24 22 22 21 21 21 22
12 13 14 16 19 23 27 31 36 40 42 43 44 45 45 46 46 45 44 42 40 38 38 38 39 39 38 37 35 33 32 31 29 28 27 27 26 24 23 22 23 23 24
12 12 13 14 16 18 21 25 29 33 37 40 43 45 46 47 46 46 45 44 43 41 39 40 41 40 40 39 38 36 33 32 30 29 29 28 27 26 25 24 25 25 25
12 12 12 13 14 16 18 21 25 29 33 36 40 43 45 46 47 47 47 45 44 44 42 42 42 41 40 40 39 38 36 34 32 31 30 29 28 27 27 26 26 25 26
14 13 13 12 12 13 15 17 20 24 28 32 36 39 42 43 45 46 45 45 45 45 43 43 43 42 41 41 41 41 38 37 35 33 32 31 30 29 28 27 27 26 26
16 15 15 14 13 13 14 15 17 19 23 26 30 34 38 40 42 43 44 43 43 43 44 43 42 42 41 40 41 40 38 36 35 34 33 32 30 29 28 28 27 27 27
18 17 16 15 14 14 14 15 16 16 19 22 25 29 33 37 39 41 42 41 42 41 42 42 42 42 41 40 40 38 38 36 35 34 33 33 31 30 29 28 28 28 28
20 19 18 17 15 14 14 14 14 15 17 18 21 24 27 30 34 38 39 40 40 40 40 40 40 40 39 40 39 38 37 36 35 34 34 33 32 30 29 29 29 28 27
22 21 20 18 17 16 15 14 14 15 16 17 18 20 22 24 28 32 35 37 37 36 37 38 38 38 37 36 35 35 35 36 35 34 34 33 32 30 29 28 27 26 26
24 23 22 21 19 18 16 15 14 14 15 17 17 18 20 22 23 26 28 31 32 32 32 33 35 35 35 34 34 33 33 34 34 34 33 32 31 29 28 27 26 25 25
26 25 24 23 21 19 17 15 13 12 12 14 16 17 18 20 21 22 24 26 28 28 28 29 30 31 32 32 32 33 33 33 33 32 31 29 28 27 26 25 25 24 23
28 27 26 25 23 21 18 15 12 10 10 11 13 15 17 17 18 19 21 23 25 26 26 26 28 29 30 30 30 31 31 32 31 30 29 28 27 26 25 24 24 23 21
29 29 28 26 24 22 19 16 12 8 7 8 10 12 14 16 17 17 18 20 21 23 24 25 25 25 26 27 27 27 27 27 27 27 26 26 25 24 24 24 22 21 20
Wind_Direction
257 254 253 250 249 250 249 249 248 247 246 244 243 242 241 240 237 236 234 231 228 228 227 223 219 209 195 180 169 161 154 148 140 135 128 115 88 62 51 1 304 307 300
256 257 256 254 251 250 251 249 247 245 245 244 242 241 241 240 238 236 235 234 233 233 234 234 232 227 222 213 203 199 195 191 184 177 178 189 224 355 354 339 322 313 308
254 255 254 253 253 252 251 250 249 248 247 244 241 240 239 240 239 238 236 236 235 235 236 237 237 237 236 232 227 226 226 225 227 231 238 248 260 278 291 297 306 311 310
252 253 253 253 254 254 253 253 252 249 249 245 241 239 239 240 240 239 238 237 236 235 237 239 240 241 242 242 241 242 243 243 245 250 256 260 266 272 280 287 293 299 304
251 251 251 252 254 254 254 253 252 251 249 247 244 241 239 240 240 240 239 238 237 237 238 240 242 243 243 244 245 246 247 249 251 254 259 262 266 272 278 284 288 293 297
250 250 249 250 250 250 250 250 250 250 249 248 246 244 240 238 240 240 240 239 238 238 239 240 242 243 243 244 245 247 248 250 253 256 259 262 266 271 276 281 284 288 291
249 248 248 248 248 248 248 247 248 247 247 247 247 244 242 239 239 238 239 239 239 239 240 240 241 242 242 243 245 247 249 252 255 258 261 263 266 270 275 278 281 283 287
248 246 246 245 246 246 246 246 246 245 245 245 245 245 244 240 239 238 238 238 239 239 240 240 241 242 242 242 244 246 249 252 254 258 261 263 266 270 273 276 279 281 284
250 248 246 244 244 244 244 244 244 243 242 242 242 243 243 240 237 237 236 237 237 237 239 240 241 242 242 243 244 246 248 251 254 257 261 263 265 268 272 275 277 279 281
255 251 247 245 243 242 242 243 243 242 241 240 239 239 239 237 236 234 234 235 234 236 238 239 239 241 242 244 245 246 248 250 253 256 259 262 264 267 271 274 275 277 279
260 255 250 246 243 241 241 241 241 241 240 239 237 237 236 235 234 232 233 236 235 235 236 237 239 240 241 243 245 247 247 249 252 255 257 259 262 265 268 271 274 276 278
267 261 255 249 245 242 240 239 240 239 238 237 237 236 235 234 232 232 233 235 234 234 235 236 238 240 241 242 244 246 247 248 250 252 253 255 259 262 265 269 273 276 278
279 271 262 255 249 245 242 240 239 238 238 236 236 235 234 232 231 231 233 234 234 234 234 235 237 239 239 241 243 244 245 247 248 250 252 254 256 259 262 267 272 276 279
293 283 272 262 254 248 244 241 239 238 237 236 236 235 233 232 231 231 231 232 233 234 234 234 235 236 237 239 241 242 244 247 247 248 250 252 254 257 261 267 272 276 278
308 295 282 271 262 254 248 244 241 239 237 236 236 235 233 232 231 231 231 230 231 232 234 234 233 235 235 236 238 239 242 244 244 245 247 250 253 257 259 266 271 274 277
317 307 296 283 272 263 256 250 245 241 238 237 236 235 233 232 231 232 231 230 230 230 230 232 234 234 233 235 234 236 238 240 242 244 246 249 253 256 260 265 271 274 279
331 318 307 298 286 273 265 257 249 243 240 238 236 235 234 233 232 232 231 230 229 229 229 231 232 232 233 232 233 234 235 236 240 243 245 247 251 256 260 266 270 275 280
344 335 324 312 300 286 275 267 255 249 243 239 237 235 234 233 232 232 231 229 229 230 230 231 231 232 231 232 232 233 234 234 238 241 243 246 249 255 260 266 271 275 279
348 341 333 321 309 298 287 276 265 255 246 242 239 237 235 233 231 229 229 229 229 229 229 229 230 230 231 232 232 233 232 233 236 237 241 244 250 256 262 267 270 274 279
352 346 340 331 318 307 296 284 272 261 252 245 242 239 237 234 231 229 229 228 228 229 229 229 230 230 231 230 230 231 231 232 234 236 241 245 251 256 261 264 267 272 278
354 350 345 338 329 317 305 293 279 266 257 248 243 239 236 234 231 229 230 229 229 230 230 229 229 228 229 228 228 231 232 233 237 239 242 245 250 255 257 261 266 272 275
357 353 350 344 336 327 313 298 284 270 259 250 246 240 235 232 230 229 231 230 228 229 229 228 228 227 226 226 227 229 232 233 236 239 242 246 249 252 254 259 266 270 273
2 358 354 348 343 335 325 311 292 277 260 250 245 241 235 232 231 231 230 229 227 226 225 226 227 228 227 227 228 230 231 232 235 239 242 245 246 250 254 259 264 267 269
5 2 358 354 348 342 335 323 307 287 266 252 243 237 234 231 226 226 228 227 227 226 225 224 223 223 224 225 228 230 231 233 235 237 239 242 245 248 253 257 260 263 267
7 5 2 359 356 351 346 338 322 297 274 255 241 231 228 228 225 223 221 220 221 223 224 223 222 224 225 225 228 229 231 232 233 234 236 240 244 247 250 253 256 260 261
9 8 6 5 4 2 359 354 343 317 282 255 236 225 220 218 218 217 217 216 217 219 218 218 220 220 222 223 225 225 227 229 230 233 235 238 240 244 248 250 253 254 255
Height
5864 5865 5867 5869 5871 5873 5875 5876 5878 5880 5883 5885 5886 5888 5889 5891 5893 5894 5896 5897 5898 5900 5901 5902 5903 5904 5905 5906 5906 5907 5908 5909 5910 5910 5911 5912 5912 5913 5913 5913 5914 5914 5915
5857 5859 5860 5862 5864 5866 5868 5870 5872 5874 5877 5880 5882 5883 5885 5887 5889 5891 5893 5895 5896 5898 5899 5900 5902 5903 5904 5905 5906 5906 5907 5908 5909 5910 5911 5911 5912 5912 5913 5913 5913 5913 5914
5849 5851 5854 5856 5857 5860 5862 5864 5866 5868 5871 5874 5876 5878 5880 5882 5885 5887 5890 5892 5893 5895 5897 5898 5900 5901 5902 5903 5904 5905 5906 5907 5908 5909 5910 5910 5911 5911 5912 5912 5912 5912 5913
5840 5842 5845 5847 5850 5852 5855 5857 5859 5862 5864 5867 5870 5872 5875 5877 5880 5882 5885 5888 5890 5892 5894 5895 5897 5899 5900 5901 5903 5904 5905 5906 5907 5908 5908 5909 5910 5910 5910 5911 5911 5911 5911
5830 5833 5836 5838 5841 5844 5847 5849 5852 5855 5857 5860 5863 5866 5869 5871 5874 5877 5880 5883 5885 5888 5890 5892 5894 5896 5897 5899 5900 5901 5903 5904 5905 5906 5906 5907 5908 5908 5909 5909 5909 5909 5909
5820 5823 5825 5828 5830 5834 5837 5841 5844 5847 5850 5852 5855 5858 5861 5865 5868 5871 5874 5877 5880 5883 5885 5888 5890 5892 5894 5896 5897 5898 5900 5901 5902 5903 5904 5905 5905 5906 5906 5907 5907 5907 5907
5810 5813 5815 5818 5820 5824 5827 5831 5835 5838 5841 5844 5847 5850 5854 5857 5860 5864 5867 5871 5874 5877 5880 5883 5885 5887 5890 5892 5893 5895 5896 5898 5899 5900 5901 5902 5902 5903 5903 5904 5904 5904 5904
5799 5802 5805 5808 5811 5814 5817 5821 5824 5828 5832 5835 5839 5841 5845 5849 5853 5857 5860 5863 5867 5870 5874 5877 5880 5882 5885 5887 5889 5891 5893 5894 5895 5896 5898 5898 5899 5900 5900 5901 5901 5901 5901
5790 5792 5795 5797 5800 5804 5807 5811 5815 5818 5822 5826 5830 5833 5837 5841 5845 5849 5852 5856 5860 5863 5867 5871 5874 5876 5879 5882 5884 5886 5888 5890 5891 5893 5894 5895 5895 5896 5897 5897 5897 5897 5897
5780 5782 5784 5787 5790 5794 5797 5800 5804 5808 5812 5816 5820 5825 5829 5833 5836 5841 5845 5848 5852 5856 5860 5864 5867 5870 5873 5876 5878 5881 5883 5885 5887 5888 5889 5890 5891 5892 5892 5893 5893 5893 5893
5772 5773 5774 5776 5779 5783 5786 5790 5794 5798 5802 5806 5811 5815 5820 5824 5828 5833 5837 5841 5844 5848 5852 5856 5860 5863 5867 5869 5872 5875 5877 5879 5881 5883 5884 5886 5887 5887 5888 5888 5889 5889 5889
5765 5765 5766 5767 5769 5772 5776 5780 5783 5787 5792 5796 5801 5805 5810 5815 5820 5825 5829 5832 5836 5840 5844 5848 5852 5856 5860 5863 5866 5868 5871 5873 5876 5877 5879 5881 5882 5883 5883 5884 5884 5884 5884
5759 5758 5758 5759 5760 5763 5766 5769 5773 5777 5781 5786 5791 5795 5800 5805 5810 5815 5820 5824 5828 5832 5836 5840 5845 5849 5852 5855 5859 5861 5864 5867 5869 5871 5873 5875 5876 5877 5878 5879 5879 5879 5879
5754 5753 5752 5752 5753 5754 5757 5760 5763 5767 5771 5775 5780 5785 5790 5795 5800 5805 5810 5815 5819 5824 5828 5832 5837 5841 5844 5848 5851 5855 5858 5860 5863 5865 5867 5869 5871 5872 5873 5873 5874 5874 5874
5751 5749 5748 5747 5747 5748 5749 5751 5754 5757 5761 5765 5769 5774 5779 5784 5790 5795 5800 5806 5811 5815 5820 5824 5829 5833 5837 5840 5844 5847 5851 5854 5856 5859 5861 5863 5864 5866 5867 5868 5868 5868 5868
5749 5747 5745 5743 5743 5742 5742 5743 5745 5747 5751 5754 5759 5764 5769 5774 5779 5784 5790 5795 5800 5805 5810 5815 5819 5824 5828 5832 5836 5840 5843 5846 5849 5852 5854 5857 5858 5860 5861 5862 5862 5863 5863
5747 5745 5742 5740 5738 5738 5737 5737 5738 5739 5742 5745 5749 5753 5758 5763 5769 5774 5779 5785 5790 5795 5801 5806 5810 5814 5819 5824 5828 5832 5836 5839 5842 5845 5847 5850 5851 5853 5854 5855 5856 5856 5856
5746 5743 5740 5737 5735 5733 5732 5731 5731 5732 5734 5737 5740 5744 5748 5753 5758 5764 5769 5775 5780 5785 5791 5796 5800 5805 5810 5815 5819 5823 5827 5831 5834 5838 5840 5842 5844 5846 5847 5849 5849 5850 5850
5745 5741 5737 5734 5732 5730 5728 5727 5726 5726 5727 5729 5731 5735 5739 5743 5748 5754 5760 5765 5770 5775 5780 5786 5791 5796 5801 5805 5810 5815 5819 5823 5826 5829 5832 5835 5837 5839 5840 5842 5843 5843 5843
5744 5739 5735 5731 5728 5726 5724 5722 5721 5721 5722 5723 5725 5727 5730 5734 5739 5744 5749 5755 5761 5766 5771 5776 5782 5787 5792 5796 5801 5806 5811 5815 5819 5822 5825 5827 5830 5832 5834 5835 5836 5836 5837
5743 5738 5733 5729 5725 5722 5720 5718 5716 5716 5716 5717 5719 5721 5723 5727 5731 5736 5741 5746 5752 5757 5762 5767 5772 5777 5783 5788 5793 5798 5803 5807 5811 5814 5817 5820 5822 5825 5827 5828 5829 5830 5830
5742 5737 5732 5727 5723 5719 5716 5714 5712 5711 5711 5712 5713 5715 5718 5721 5724 5728 5733 5738 5744 5749 5754 5759 5764 5769 5775 5780 5785 5790 5795 5799 5803 5807 5810 5813 5815 5818 5820 5821 5822 5823 5824
5742 5736 5731 5725 5720 5716 5712 5709 5707 5706 5706 5707 5708 5710 5712 5715 5719 5722 5727 5732 5737 5741 5746 5752 5757 5762 5767 5773 5778 5783 5787 5792 5796 5799 5802 5805 5808 5810 5812 5814 5816 5817 5817
5742 5736 5730 5724 5719 5713 5709 5705 5702 5701 5701 5702 5703 5705 5708 5711 5714 5718 5722 5726 5730 5735 5740 5745 5750 5755 5761 5765 5770 5775 5779 5784 5788 5792 5795 5798 5801 5804 5806 5807 5809 5810 5811
5742 5736 5729 5723 5717 5711 5706 5702 5699 5697 5696 5697 5698 5700 5704 5707 5710 5714 5718 5722 5725 5730 5734 5739 5744 5749 5754 5759 5763 5768 5772 5777 5780 5784 5788 5791 5794 5797 5799 5801 5803 5804 5805
5743 5736 5729 5723 5716 5710 5705 5700 5696 5694 5693 5694 5695 5697 5700 5703 5707 5710 5714 5718 5721 5725 5730 5734 5739 5743 5747 5752 5757 5762 5767 5770 5774 5778 5781 5785 5788 5790 5793 5795 5796 5798 5799